Dauntless Aviation
Airports Europe Italy
LIMC
MXP

Malpensa

Milano, ITALY

Airport Info
Suggest Updated Information for this Airport

Location

Latitude / Longitude: 45°37'50"N / 8°43'41"E
  45°37.836'N / 8°43.686'E
  45.6306 / 8.7281

Nearby radio navigation aids

MAL MALPENSA VOR/DME on field.
MAL MALPENSA NDB. 346.3° 5.3nm from MAL to field.

Runway Information

Runway 17L/35R

Dimensions: 12861 x 197 ft.
Surface: ASP
 
Runway 17L
Runway 35R
Latitude: 45.642058 45.61575
Longitude: 8.730197 8.737497
Elevation: 745 ft. 745 ft.
Runway true heading: 168.2 348.2
 

Runway 17R/35L

Dimensions: 12861 x 197 ft.
Surface: ASP
 
Runway 17R
Runway 35L
Latitude: 45.645461 45.614797
Longitude: 8.718725 8.727208
Elevation: 764 ft. 764 ft.
Runway true heading: 168.2 348.2
 

Instrument Procedures

  Aircraft Parking Docking Chart - T2
  Aerodrome Ground Movement Chart
  Aerodrome Ground Movement Chart: Aircraft Code F
  Aerodrome Chart
  Aircraft Parking Docking Chart: T1

STARs (Standard Terminal Arrivals)

  Link Routes and STAR NO-RNAV Milano Malpensa
  Link Routes and STAR P-RNAV Milano Malpensa

IAPs (Instrument Approach Procedures)

  LOC Rwy 17L
  ILS Y Rwy 35R
  VOR Rwy 17L
  ILS Y Rwy 35L
  VOR Rwy 35L
  Visual Approach Chart
  RNAV (GNSS) Rwy 35L
  ILS Z Rwy 35L
  ILS Z Rwy 35R
  ILS-X Rwy 35L
  L Rwy 35R
  ILS Z Rwy 17L
  Hotspot MAP (Not for Navigation)
  ILS Y Rwy 17L
  VOR Rwy 35R
  Low Visibility Procedures Chart
  Aerodrome Obstacle Chart - Type A Rwy 35R/17L
  Aerodrome Obstacle Chart - Type A Rwy 35L/17R
  Precision Approach Terrain Chart Rwy 35R
  Precision Approach Terrain Chart Rwy 35L

Departure Procedures

  SIDs Rwy 35L Transition SEGMENTS to ENROUTE
  Initial Climb Procedure and SIDs Rwy 35L
  SIDs Rwy 35R Transition SEGMENTS to ENROUTE
  Initial Climb Procedure and SIDs Rwy 35R
  Initial Climb Procedures and SIDs Rwy 17L/R
  SIDs Rwy 17L/R Transition SEGMENTS to ENROUTE
Satellite photo at:
Airport distance calculator
From:
Weather Reports

METAR

LIMC

LIMC 251520Z 27006KT 210V350 9999 FEW030 31/18 Q1014 NOSIG
LIMN
7.3nm S
LIMN 251455Z 25005KT 9999 FEW030 31/21 Q1014 RMK FEW VIS MIN 9999 BLU
LSZA
24.3nm N
LSZA 251550Z VRB02KT 9999 FEW060TCU FEW140 31/20 Q1014 NOSIG
LIML
24.7nm E
LIML 251520Z 19004KT 120V280 9999 FEW040 33/16 Q1013 NOSIG
LSZL
32.8nm N
LSZL 251550Z AUTO 27004KT 240V300 9999NDV FEW150 30/19 Q1014 RMK

TAF

LIMC
TAF LIMC 251100Z 2512/2618 VRB05KT CAVOK PROB40 TEMPO 2604/2608 SHRA
LIMN
7.3nm S
TAF LIMN 251400Z 2515/2524 06003KT 9999 FEW030 SCT070
LSZA
24.3nm N
TAF LSZA 251425Z 2515/2524 20007KT 9999 FEW060TCU TEMPO 2519/2524 4500 SHRA PROB30 TEMPO 2519/2522 4000 TSRA SCT040CB
LIML
24.7nm E
TAF LIML 251100Z 2512/2612 VRB05KT CAVOK
LSZL
32.8nm N
TAF LSZL 251125Z 2512/2521 26006KT 9999 FEW050 SCT100 PROB40 TEMPO 2515/2521 SHRA SCT050TCU PROB30 TEMPO 2517/2521 4000 TSRA FEW040CB
Safelog

 

Dauntless Aviation

© 2007-2016 Dauntless Aviation, all rights reserved
Information provided via PilotNav comes from a variety of official and unofficial data sources. As errors are possible, do not use PilotNav for primary flight planning purposes. Verify any information that you receive via PilotNav with current and canonical charts and other official documents. The material in this database is subject to database copyrights held by Dauntless Aviation and may not be copied without the express permission of Dauntless Aviation - licenses for use of part of all of this data are available for purchase; enquire via the Dauntless Aviation helpdesk. A number of mechanisms and markers exist in the database to protect against and identify infringement / copyright. Automated queries against this website are stictly prohibited, and all activity is logged and analyzed.